FW3572 Weather Reports


time (UTC)temp
F
wind
direction
speed
knots
gust
knots
rain 1hr
in
rain 24hr
in
rain mn
in
humidity
%
barometer
mb
20211208125510 63 235 1.7 3.5 0.00 0.00 0.00 82 1019.8
20211208125016 63 257 0.0 0.0 0.00 0.00 0.00 82 1019.8
20211208124517 62 273 0.0 0.0 0.00 0.00 0.00 82 1019.9
20211208124008 62 19 0.0 0.0 0.00 0.00 0.00 82 1019.7
20211208123508 62 39 0.0 0.0 0.00 0.00 0.00 81 1019.6
20211208123013 62 40 0.0 0.0 0.00 0.00 0.00 81 1019.6
20211208122507 61 40 0.0 0.0 0.00 0.00 0.00 81 1019.5
20211208122019 61 40 0.0 0.0 0.00 0.00 0.00 81 1019.2
20211208121508 61 40 0.0 0.0 0.00 0.00 0.00 81 1019.2
20211208121006 61 40 0.0 0.0 0.00 0.00 0.00 81 1019.1
20211208120519 61 40 0.0 0.0 0.00 0.00 0.00 81 1019.1
20211208120008 61 40 0.0 0.0 0.00 0.00 0.00 81 1019.1
20211208115506 61 40 0.0 0.0 0.00 0.00 0.00 81 1019.3
20211208115006 61 40 0.0 0.0 0.00 0.00 0.00 81 1019.4
20211208114506 61 40 0.0 0.0 0.00 0.00 0.00 81 1019.3
20211208114005 61 40 0.0 0.0 0.00 0.00 0.00 81 1019.4
20211208113515 61 40 0.0 0.0 0.00 0.00 0.00 81 1019.4
20211208113015 61 40 0.0 0.0 0.00 0.00 0.00 81 1019.5
20211208112507 61 40 0.0 0.0 0.00 0.00 0.00 81 1019.5
20211208112005 61 40 0.0 0.0 0.00 0.00 0.00 81 1019.4
20211208111526 61 40 0.0 0.0 0.00 0.00 0.00 81 1019.5
20211208111008 61 40 0.0 0.0 0.00 0.00 0.00 81 1019.3
20211208110504 61 40 0.0 0.0 0.00 0.00 0.00 81 1019.2
20211208110009 61 40 0.0 0.0 0.00 0.00 0.00 81 1019.2
20211208105504 61 40 0.0 0.0 0.00 0.00 0.00 81 1019.0
20211208105008 61 40 0.0 0.0 0.00 0.00 0.00 81 1018.9
20211208104510 61 40 0.0 0.0 0.00 0.00 0.00 81 1018.8
20211208104014 61 40 0.0 0.0 0.00 0.00 0.00 81 1018.6
20211208103506 61 40 0.0 0.0 0.00 0.00 0.00 81 1018.6
20211208103011 61 40 0.0 0.0 0.00 0.00 0.00 81 1018.5
20211208102508 61 40 0.0 0.0 0.00 0.00 0.00 81 1018.5
20211208102004 62 40 0.0 0.0 0.00 0.00 0.00 81 1018.5
20211208101507 62 40 0.0 0.0 0.00 0.00 0.00 81 1018.5
20211208101001 62 40 0.0 0.0 0.00 0.00 0.00 81 1018.4
20211208100503 62 40 0.0 0.0 0.00 0.00 0.00 81 1018.4
20211208095600 62 40 0.0 0.0 0.00 0.01 0.00 81 1018.4
20211208095059 62 40 0.0 0.0 0.00 0.01 0.00 81 1018.4
20211208094654 62 40 0.0 0.0 0.00 0.01 0.00 81 1018.5
20211208094059 62 40 0.0 0.0 0.00 0.01 0.00 81 1018.4
20211208093558 62 40 0.0 0.0 0.00 0.01 0.00 81 1018.4
20211208093107 62 40 0.0 0.0 0.00 0.01 0.00 81 1018.4
20211208092558 62 40 0.0 0.0 0.00 0.01 0.00 81 1018.4
20211208092057 62 40 0.0 0.0 0.00 0.01 0.00 81 1018.4
20211208091809 62 40 0.0 0.0 0.00 0.01 0.00 81 1018.4
20211208091058 62 40 0.0 0.0 0.00 0.01 0.00 81 1018.4
20211208090556 62 40 0.0 0.0 0.00 0.01 0.00 81 1018.5
20211208090133 62 40 0.0 0.0 0.00 0.01 0.00 81 1018.5
20211208085627 62 40 0.0 0.0 0.00 0.01 0.00 81 1018.4
20211208085110 63 40 0.0 0.0 0.00 0.01 0.00 81 1018.5
20211208084715 63 40 0.0 0.0 0.00 0.01 0.00 81 1018.5
20211208084058 63 40 0.0 0.0 0.00 0.01 0.00 81 1018.5
20211208083555 62 40 0.0 0.0 0.00 0.01 0.00 80 1018.5
20211208083118 63 40 0.0 0.0 0.00 0.01 0.00 81 1018.5
20211208082603 63 40 0.0 0.0 0.00 0.01 0.00 81 1018.5
20211208082057 63 40 0.0 0.0 0.00 0.01 0.00 81 1018.5
20211208081647 63 40 0.0 0.0 0.00 0.01 0.00 81 1018.5
20211208081053 63 40 0.0 0.0 0.00 0.01 0.00 81 1018.6
20211208080556 63 40 0.0 0.0 0.00 0.01 0.00 81 1018.7
20211208080102 63 40 0.0 0.0 0.00 0.01 0.00 81 1018.8
20211208075552 63 40 0.0 0.0 0.00 0.01 0.00 81 1018.8
20211208075051 63 40 0.0 0.0 0.00 0.01 0.00 80 1018.9
20211208074712 63 40 0.0 0.0 0.00 0.01 0.00 81 1018.9
20211208074116 64 40 0.0 0.0 0.00 0.01 0.00 81 1018.9
20211208073552 64 40 0.0 0.0 0.00 0.01 0.00 80 1018.8
20211208073143 63 40 0.0 0.0 0.00 0.01 0.00 80 1018.7
20211208072620 63 40 0.0 0.0 0.00 0.01 0.00 80 1018.6
20211208072108 63 40 0.0 0.0 0.00 0.01 0.00 80 1018.6
20211208071741 63 40 0.0 0.0 0.00 0.01 0.00 80 1018.6
20211208071050 63 40 0.0 0.0 0.00 0.01 0.00 79 1018.6
20211208070550 63 40 0.0 0.0 0.00 0.01 0.00 79 1018.6
20211208070135 64 40 0.0 0.0 0.00 0.01 0.00 79 1018.6
20211208065554 64 40 0.0 0.0 0.00 0.01 0.00 79 1018.8
20211208065055 64 40 0.0 0.0 0.00 0.01 0.00 79 1018.8
20211208064600 64 40 0.0 0.0 0.00 0.01 0.00 79 1018.9
20211208064046 64 40 0.0 0.0 0.00 0.01 0.00 79 1018.8
20211208063551 64 40 0.0 0.0 0.00 0.01 0.00 79 1019.0
20211208063047 64 40 0.0 0.0 0.00 0.01 0.00 79 1018.9
20211208062545 64 40 0.0 0.0 0.00 0.01 0.00 79 1018.9
20211208062103 64 40 0.0 0.0 0.00 0.01 0.00 79 1018.8
20211208061650 64 40 0.0 0.0 0.00 0.01 0.00 79 1018.9
20211208061043 64 40 0.0 0.0 0.00 0.01 0.00 79 1019.0
20211208060550 64 40 0.0 0.0 0.00 0.01 0.00 79 1019.1
20211208060102 64 40 0.0 0.0 0.00 0.01 0.00 79 1019.0
20211208055606 64 40 0.0 0.0 0.00 0.01 0.00 79 1019.1
20211208055103 64 40 0.0 0.0 0.00 0.01 0.00 79 1019.0
20211208054556 64 40 0.0 0.0 0.00 0.01 0.00 79 1018.9
20211208054057 64 40 0.0 0.0 0.00 0.01 0.00 79 1019.0
20211208053554 64 40 0.0 0.0 0.00 0.01 0.00 79 1019.0
20211208053102 65 40 0.0 0.0 0.00 0.01 0.00 79 1019.0
20211208052542 65 40 0.0 0.0 0.00 0.01 0.00 79 1019.0
20211208052053 65 40 0.0 0.0 0.00 0.01 0.00 78 1019.0
20211208051602 65 40 0.0 0.0 0.00 0.01 0.00 79 1019.3
20211208051039 65 40 0.0 0.0 0.00 0.01 0.00 79 1019.4
20211208050539 65 40 0.0 0.0 0.00 0.01 0.00 78 1019.4
20211208050114 65 40 0.0 0.0 0.00 0.01 0.00 78 1019.5
20211208045536 65 40 0.0 0.0 0.00 0.01 0.01 78 1019.6
20211208045044 65 40 0.0 0.0 0.00 0.01 0.01 78 1019.8
20211208044648 65 40 0.0 0.0 0.00 0.01 0.01 78 1019.7
20211208044044 65 40 0.0 0.0 0.00 0.01 0.01 78 1019.7
20211208043553 65 40 0.0 0.0 0.00 0.01 0.01 78 1019.8
20211208043043 66 40 0.0 0.0 0.00 0.01 0.01 78 1019.9
20211208042535 66 40 0.0 0.0 0.00 0.01 0.01 78 1019.9
20211208042057 66 40 0.0 0.0 0.00 0.01 0.01 78 1020.0
20211208041603 66 40 0.0 0.0 0.00 0.01 0.01 78 1020.3
20211208041036 66 40 0.0 0.0 0.00 0.01 0.01 77 1020.4
20211208040559 66 40 0.0 0.0 0.00 0.01 0.01 77 1020.4
20211208040114 66 40 0.0 0.0 0.00 0.01 0.01 77 1020.5
20211208035534 66 40 0.0 0.0 0.00 0.01 0.01 77 1020.6
20211208035039 66 40 0.0 0.0 0.00 0.01 0.01 77 1020.6
20211208034558 66 40 0.0 0.0 0.00 0.01 0.01 77 1020.6
20211208034045 66 40 0.0 0.0 0.00 0.01 0.01 77 1020.6
20211208033534 66 40 0.0 0.0 0.00 0.01 0.01 77 1020.6
20211208033104 66 40 0.0 0.0 0.00 0.01 0.01 77 1020.6
20211208032533 66 40 0.0 0.0 0.00 0.01 0.01 77 1020.6
20211208032032 66 40 0.0 0.0 0.00 0.01 0.01 77 1020.7
20211208031556 66 40 0.0 0.0 0.00 0.01 0.01 77 1020.7
20211208031038 66 40 0.0 0.0 0.00 0.01 0.01 77 1020.5
20211208030550 66 40 0.0 0.0 0.00 0.01 0.01 77 1020.5
20211208030051 67 40 0.0 0.0 0.00 0.01 0.01 77 1020.5
20211208025550 67 40 0.0 0.0 0.00 0.01 0.01 77 1020.5
20211208025035 67 40 0.0 0.0 0.00 0.01 0.01 77 1020.5
20211208024549 67 40 0.0 0.0 0.00 0.01 0.01 77 1020.5
20211208024033 67 40 0.0 0.0 0.00 0.01 0.01 76 1020.4
20211208023536 67 40 0.0 0.0 0.00 0.01 0.01 77 1020.3
20211208023118 67 40 0.0 0.0 0.00 0.01 0.01 76 1020.3
20211208022536 67 40 0.0 0.0 0.00 0.01 0.01 76 1020.3
20211208022057 67 40 0.0 0.0 0.00 0.01 0.01 76 1020.3
20211208021550 67 40 0.0 0.0 0.00 0.01 0.01 76 1020.4
20211208021051 67 40 0.0 0.0 0.00 0.01 0.01 76 1020.3
20211208020531 67 40 0.0 0.0 0.00 0.01 0.01 76 1020.3
20211208020122 67 40 0.0 0.0 0.00 0.01 0.01 76 1020.4
20211208015533 67 40 0.0 0.0 0.00 0.01 0.01 76 1020.4
20211208015035 67 40 0.0 0.0 0.00 0.01 0.01 76 1020.3
20211208014632 67 40 0.0 0.0 0.00 0.01 0.01 76 1020.2
20211208014030 67 40 0.0 0.0 0.00 0.01 0.01 76 1020.1
20211208013530 67 40 0.0 0.0 0.00 0.01 0.01 76 1020.3
20211208013055 67 40 0.0 0.0 0.00 0.01 0.01 76 1020.1
20211208012529 67 40 0.0 0.0 0.00 0.01 0.01 76 1020.1
20211208012028 67 40 0.0 0.0 0.00 0.01 0.01 76 1020.1
20211208011612 67 40 0.0 0.0 0.00 0.01 0.01 76 1020.1
20211208011029 68 40 0.0 0.0 0.00 0.01 0.01 76 1020.1
20211208010543 68 40 0.0 0.0 0.00 0.01 0.01 75 1020.1
20211208010045 68 40 0.0 0.0 0.00 0.01 0.01 75 1020.0
20211208005534 68 40 0.0 0.0 0.00 0.01 0.01 75 1020.0
20211208005028 68 40 0.0 0.0 0.00 0.01 0.01 75 1019.9
20211208004615 69 40 0.0 0.0 0.00 0.01 0.01 75 1019.9
20211208004032 68 40 0.0 0.0 0.00 0.01 0.01 75 1019.9
20211208003536 68 40 0.0 0.0 0.00 0.01 0.01 75 1019.9
20211208003134 69 40 0.0 0.9 0.00 0.01 0.01 75 1019.9
20211208002535 69 40 0.0 0.9 0.00 0.01 0.01 75 1019.9
20211208002041 69 40 0.0 0.9 0.00 0.01 0.01 75 1020.0
20211208001621 69 40 0.0 0.9 0.00 0.01 0.01 74 1020.0
20211208001027 69 40 0.0 0.9 0.00 0.01 0.01 75 1019.9
20211208000526 70 40 0.0 1.7 0.00 0.01 0.01 74 1019.9
20211208000103 70 41 0.0 0.0 0.00 0.01 0.01 74 1019.9
20211207235541 70 41 0.0 0.0 0.00 0.01 0.01 74 1019.8
20211207235026 70 41 0.0 0.0 0.00 0.01 0.01 74 1019.8
20211207234611 70 41 0.0 0.0 0.00 0.01 0.01 74 1019.8
20211207234034 70 41 0.0 1.7 0.00 0.01 0.01 74 1019.8
20211207233541 71 41 0.0 1.7 0.00 0.01 0.01 74 1019.8
20211207233034 71 41 0.0 0.9 0.00 0.01 0.01 74 1019.7
20211207232529 71 41 0.0 0.9 0.00 0.01 0.01 73 1019.7
20211207232027 71 41 0.0 0.9 0.00 0.01 0.01 73 1019.6
20211207231543 71 41 0.0 0.9 0.00 0.01 0.01 73 1019.6
20211207231025 71 41 0.0 0.9 0.00 0.01 0.01 73 1019.6
20211207230548 71 41 0.0 1.7 0.00 0.01 0.01 73 1019.5
20211207230052 71 41 0.0 1.7 0.00 0.01 0.01 73 1019.4
20211207225535 71 40 0.0 3.5 0.00 0.01 0.01 73 1019.3
20211207225024 71 40 0.0 3.5 0.00 0.01 0.01 73 1019.3
20211207224604 71 24 0.0 3.5 0.00 0.01 0.01 72 1019.2
20211207224024 71 50 0.9 3.5 0.00 0.01 0.01 72 1019.3
20211207223523 71 39 0.9 3.5 0.00 0.01 0.01 72 1019.3
20211207223058 71 48 0.0 4.3 0.00 0.01 0.01 72 1019.3
20211207222548 72 53 0.9 4.3 0.00 0.01 0.01 72 1019.3
20211207222023 72 38 0.9 4.3 0.00 0.01 0.01 72 1019.3
20211207221559 72 49 0.0 3.5 0.00 0.01 0.01 72 1019.3
20211207221033 72 38 0.9 3.5 0.00 0.01 0.01 71 1019.2
20211207220544 72 63 0.0 4.3 0.00 0.01 0.01 71 1019.3
20211207220056 72 65 0.0 5.2 0.00 0.01 0.01 71 1019.2
20211207215527 72 55 1.7 5.2 0.00 0.01 0.01 71 1019.2
20211207215021 73 58 1.7 5.2 0.00 0.01 0.01 70 1019.2
20211207214529 73 36 0.9 7.0 0.00 0.01 0.01 70 1019.3
20211207214033 73 83 1.7 7.0 0.00 0.01 0.01 70 1019.4
20211207213526 73 18 2.6 7.8 0.00 0.01 0.01 69 1019.4
20211207213042 73 41 1.7 7.8 0.00 0.01 0.01 69 1019.3
20211207212521 73 15 0.9 7.8 0.00 0.01 0.01 70 1019.3
20211207212021 73 115 0.9 7.8 0.00 0.01 0.01 70 1019.3
20211207211553 74 340 1.7 5.2 0.00 0.01 0.01 69 1019.1
20211207211026 74 44 1.7 8.7 0.00 0.01 0.01 70 1019.2
20211207210537 74 32 1.7 8.7 0.00 0.01 0.01 69 1019.1
20211207210039 74 60 2.6 7.8 0.00 0.01 0.01 68 1019.2
20211207205607 74 42 2.6 7.8 0.00 0.01 0.01 67 1019.2
20211207205019 74 87 1.7 8.7 0.00 0.01 0.01 67 1019.1
20211207204614 74 74 2.6 8.7 0.00 0.01 0.01 65 1019.0
20211207204031 75 5 2.6 7.8 0.00 0.01 0.01 64 1019.0
20211207203519 75 32 3.5 7.8 0.00 0.01 0.01 63 1019.0
20211207203041 75 113 1.7 9.6 0.00 0.01 0.01 62 1019.0
20211207202534 75 351 3.5 9.6 0.00 0.01 0.01 61 1019.0
20211207202022 75 342 2.6 9.6 0.00 0.01 0.01 61 1019.1
20211207201026 76 52 3.5 7.0 0.00 0.01 0.01 61 1019.0
20211207200528 75 62 1.7 7.0 0.00 0.01 0.01 61 1019.0
20211207200037 76 82 1.7 5.2 0.00 0.01 0.01 60 1019.0
20211207195518 76 49 0.9 7.8 0.00 0.01 0.01 61 1018.9
20211207195016 76 28 2.6 7.0 0.00 0.01 0.01 61 1019.0
20211207194529 76 36 1.7 6.1 0.00 0.01 0.01 60 1019.0
20211207194044 76 58 0.9 4.3 0.00 0.01 0.01 60 1019.0
20211207193523 76 9 1.7 5.2 0.00 0.01 0.01 60 1019.0
20211207193021 77 355 2.6 7.8 0.00 0.01 0.01 58 1019.0
20211207192534 76 360 1.7 7.0 0.00 0.01 0.01 59 1019.1
20211207192022 76 51 2.6 7.0 0.00 0.01 0.01 59 1019.2
20211207191534 77 30 1.7 5.2 0.00 0.01 0.01 60 1019.1
20211207191022 77 100 0.0 5.2 0.00 0.01 0.01 61 1019.2
20211207190514 77 109 1.7 8.7 0.00 0.01 0.01 60 1019.3
20211207190031 76 14 2.6 8.7 0.00 0.01 0.01 60 1019.3
20211207185513 76 350 0.9 7.8 0.00 0.01 0.01 60 1019.3
20211207185021 76 74 3.5 8.7 0.00 0.01 0.01 60 1019.3
20211207184529 77 19 3.5 8.7 0.00 0.01 0.01 60 1019.3
20211207184013 77 36 2.6 8.7 0.00 0.01 0.01 60 1019.3
20211207183520 77 9 1.7 7.8 0.00 0.01 0.01 61 1019.3
20211207183024 77 18 3.5 7.8 0.00 0.01 0.01 61 1019.3
20211207182513 77 28 2.6 7.0 0.00 0.01 0.01 61 1019.3
20211207182013 77 21 0.9 7.0 0.00 0.01 0.01 61 1019.3
20211207181534 77 16 2.6 7.0 0.00 0.01 0.01 61 1019.3
20211207181013 77 65 0.9 5.2 0.00 0.01 0.01 61 1019.3
20211207180512 78 55 0.9 5.2 0.00 0.01 0.01 61 1019.5
20211207180018 78 355 1.7 5.2 0.00 0.01 0.01 61 1019.7
20211207175517 78 24 1.7 5.2 0.00 0.01 0.01 62 1019.6
20211207175011 78 51 0.9 4.3 0.00 0.01 0.01 61 1019.6
20211207174519 78 57 0.9 5.2 0.00 0.01 0.01 62 1019.6
20211207174011 78 298 0.0 5.2 0.00 0.01 0.01 63 1019.7
20211207173511 77 106 0.0 6.1 0.00 0.01 0.01 64 1019.8
20211207173056 77 117 1.7 6.1 0.00 0.01 0.01 63 1019.9
20211207172510 78 96 0.9 3.5 0.00 0.01 0.01 59 1019.9
20211207172010 78 346 0.9 3.5 0.00 0.01 0.01 59 1019.9
20211207171510 78 18 0.0 3.5 0.00 0.01 0.01 60 1020.0
20211207171009 78 306 0.0 3.5 0.00 0.01 0.01 61 1020.1
20211207170509 78 313 0.9 5.2 0.00 0.01 0.01 61 1020.3
20211207170011 78 339 1.7 5.2 0.00 0.01 0.01 61 1020.4
20211207165510 78 348 1.7 4.3 0.00 0.02 0.01 62 1020.3
20211207165007 77 11 0.9 5.2 0.00 0.02 0.01 63 1020.4
20211207164508 77 320 1.7 5.2 0.00 0.02 0.01 63 1020.6
20211207164005 77 306 0.9 5.2 0.00 0.02 0.01 63 1020.7
20211207163505 77 9 1.7 3.5 0.00 0.02 0.01 63 1020.8
20211207163026 76 324 0.9 7.8 0.00 0.02 0.01 64 1020.9
20211207162503 76 5 1.7 7.8 0.00 0.02 0.01 64 1021.1
20211207162004 76 330 0.9 6.1 0.00 0.02 0.01 65 1021.1
20211207161123 75 329 1.7 4.3 0.00 0.02 0.01 66 1021.1
20211207160600 75 10 0.0 2.6 0.00 0.02 0.01 67 1021.2
20211207155559 74 317 1.7 3.5 0.00 0.02 0.01 67 1021.0
20211207155234 74 286 0.9 3.5 0.00 0.02 0.01 68 1021.1
20211207155155 74 316 0.0 3.5 0.00 0.02 0.01 69 1021.1
20211207154257 73 336 0.9 3.5 0.00 0.02 0.01 70 1021.1
20211207153806 73 297 0.9 2.6 0.00 0.02 0.01 70 1021.1
20211207153129 73 300 0.0 3.5 0.00 0.02 0.01 71 1021.0
20211207152604 73 291 0.9 4.3 0.00 0.02 0.01 71 1021.0
20211207152052 72 326 0.0 3.5 0.00 0.02 0.01 72 1021.1
20211207151627 72 347 0.0 2.6 0.00 0.02 0.01 72 1021.1
20211207151051 72 330 0.0 2.6 0.00 0.02 0.01 73 1021.1
20211207150620 71 317 0.0 3.5 0.00 0.02 0.01 74 1021.0
20211207150127 71 317 0.9 3.5 0.00 0.02 0.01 75 1021.1
20211207145615 70 325 0.0 3.5 0.00 0.02 0.01 76 1021.2
20211207145045 69 307 0.0 3.5 0.00 0.02 0.01 77 1021.1
20211207144617 69 306 0.0 1.7 0.00 0.02 0.01 80 1021.0
20211207144044 68 338 0.0 2.6 0.00 0.02 0.01 83 1020.9
20211207143541 68 329 0.0 3.5 0.00 0.02 0.01 84 1021.0
20211207143041 67 321 0.9 3.5 0.00 0.02 0.01 84 1020.9
20211207142540 66 344 0.0 0.0 0.00 0.02 0.01 85 1020.7
20211207142121 65 342 0.0 0.0 0.00 0.02 0.01 85 1020.8
20211207141544 64 342 0.0 0.0 0.00 0.02 0.01 85 1020.7
20211207141037 64 347 0.0 0.0 0.00 0.02 0.01 85 1020.7
20211207140543 64 347 0.0 0.0 0.00 0.02 0.01 84 1020.6
20211207140125 64 348 0.0 0.0 0.00 0.02 0.01 84 1020.5
20211207135536 63 345 0.0 0.0 0.00 0.02 0.01 84 1020.5
20211207135044 63 338 0.0 0.0 0.00 0.02 0.01 84 1020.4
20211207134557 63 321 0.0 0.0 0.00 0.02 0.01 84 1020.4
20211207134050 63 318 0.0 0.0 0.00 0.02 0.01 84 1020.3
20211207133543 63 318 0.0 0.0 0.00 0.02 0.01 84 1020.4
20211207133155 63 318 0.0 0.0 0.00 0.02 0.01 84 1020.5
20211207132543 63 318 0.0 1.7 0.00 0.02 0.01 84 1020.4
20211207132036 63 318 0.0 2.6 0.00 0.02 0.01 84 1020.5
20211207131719 62 319 0.0 3.5 0.00 0.02 0.01 84 1020.4
20211207131109 62 319 1.7 3.5 0.00 0.02 0.01 84 1020.4
20211207130558 62 322 1.7 4.3 0.00 0.02 0.01 84 1020.3
20211207130056 62 319 1.7 5.2 0.00 0.02 0.01 84 1020.2